CW2433 Weather Reports


Display with metric or nautical units.
time (UTC)temp
F
wind
direction
speed
MPH
gust
MPH
rain 1hr
in
rain 24hr
in
rain mn
in
humidity
%
barometer
mb
20260905024510 87 161 0.0 2.0 0.00 0.00 0.00 73 1010.8
20260905023509 87 160 0.0 2.0 0.00 0.00 0.00 73 1010.9
20260905023010 88 166 1.0 2.0 0.00 0.00 0.00 73 1010.9
20260905022009 88 126 0.0 0.0 0.00 0.00 0.00 71 1010.9
20260905021510 88 126 0.0 0.0 0.00 0.00 0.00 71 1010.9
20260905021009 89 126 0.0 0.0 0.00 0.00 0.00 71 1010.8
20260905020509 89 126 0.0 0.0 0.00 0.00 0.00 71 1010.8
20260905020009 89 126 0.0 0.0 0.00 0.00 0.00 70 1010.8
20260905015509 89 126 0.0 0.0 0.00 0.00 0.00 68 1010.7
20260905015009 89 126 0.0 0.0 0.00 0.00 0.00 67 1010.6
20260905014510 90 126 0.0 0.0 0.00 0.00 0.00 66 1010.6
20260905014009 90 126 0.0 1.0 0.00 0.00 0.00 66 1010.4
20260905013510 90 126 0.0 2.0 0.00 0.00 0.00 66 1010.4
20260905013010 90 126 0.0 2.0 0.00 0.00 0.00 66 1010.3
20260905012010 91 126 0.0 0.0 0.00 0.00 0.00 65 1010.3
20260905011510 91 126 0.0 0.0 0.00 0.00 0.00 64 1010.3
20260905011010 91 126 0.0 0.0 0.00 0.00 0.00 63 1010.3
20260905010510 92 126 0.0 2.0 0.00 0.00 0.00 63 1010.2
20260905005510 92 126 1.0 2.0 0.00 0.00 0.00 62 1010.2
20260905005010 93 126 0.0 1.0 0.00 0.00 0.00 62 1010.2
20260905004510 93 126 0.0 0.0 0.00 0.00 0.00 62 1010.3
20260905004010 93 126 0.0 3.0 0.00 0.00 0.00 62 1010.2
20260905003509 93 126 0.0 3.0 0.00 0.00 0.00 61 1010.0
20260905003010 93 126 1.0 3.0 0.00 0.00 0.00 61 1010.0
20260905002510 93 134 0.0 2.0 0.00 0.00 0.00 62 1010.0
20260905002010 93 175 0.0 2.0 0.00 0.00 0.00 61 1010.1
20260905001510 94 164 0.0 3.0 0.00 0.00 0.00 61 1010.0
20260905000509 94 143 1.0 3.0 0.00 0.00 0.00 61 1010.0
20260905000009 94 165 0.0 2.0 0.00 0.00 0.00 61 1010.0
20260904235509 94 165 0.0 2.0 0.00 0.00 0.00 60 1010.1
20260904235009 94 165 0.0 2.0 0.00 0.00 0.00 60 1010.0
20260904234509 94 165 1.0 3.0 0.00 0.00 0.00 60 1010.0
20260904234009 94 163 0.0 3.0 0.00 0.00 0.00 59 1010.1
20260904233509 94 208 0.0 3.0 0.00 0.00 0.00 59 1010.1
20260904233009 95 208 1.0 5.0 0.00 0.00 0.00 59 1010.2
20260904232509 95 155 0.0 5.0 0.00 0.00 0.00 59 1010.1
20260904232009 95 209 1.0 5.0 0.00 0.00 0.00 59 1010.1
20260904230509 95 185 1.0 3.0 0.00 0.00 0.00 59 1010.2
20260904230009 95 219 0.0 2.0 0.00 0.00 0.00 59 1010.1
20260904225509 95 218 1.0 5.0 0.00 0.00 0.00 59 1010.1
20260904224509 95 148 1.0 5.0 0.00 0.00 0.00 58 1010.1
20260904223509 95 215 1.0 3.0 0.00 0.00 0.00 57 1010.1
20260904223010 95 217 1.0 6.0 0.00 0.00 0.00 57 1010.1
20260904222510 95 182 1.0 6.0 0.00 0.00 0.00 55 1010.1
20260904222009 95 107 2.0 3.0 0.00 0.00 0.00 56 1010.1
20260904221510 95 207 2.0 3.0 0.00 0.00 0.00 56 1010.1
20260904221009 96 211 1.0 3.0 0.00 0.00 0.00 56 1010.0
20260904220509 96 174 1.0 3.0 0.00 0.00 0.00 55 1009.9
20260904220010 96 204 2.0 3.0 0.00 0.00 0.00 55 1009.9
20260904215509 96 207 2.0 3.0 0.00 0.00 0.00 54 1009.9
20260904214009 97 212 2.0 5.0 0.00 0.00 0.00 55 1009.8
20260904213509 97 192 2.0 5.0 0.00 0.00 0.00 55 1009.8
20260904213010 97 188 1.0 3.0 0.00 0.00 0.00 56 1009.8
20260904212509 97 216 1.0 3.0 0.00 0.00 0.00 55 1009.8
20260904211510 97 210 1.0 3.0 0.00 0.00 0.00 55 1009.8
20260904211009 97 138 2.0 3.0 0.00 0.00 0.00 54 1009.9
20260904210010 97 144 2.0 3.0 0.00 0.00 0.00 56 1009.8
20260904205510 97 229 1.0 3.0 0.00 0.00 0.00 57 1009.9
20260904205010 97 180 2.0 5.0 0.00 0.00 0.00 56 1009.8
20260904204510 96 215 2.0 5.0 0.00 0.00 0.00 56 1009.9
20260904204010 96 227 3.0 5.0 0.00 0.00 0.00 57 1009.9
20260904203510 96 184 1.0 6.0 0.00 0.00 0.00 57 1010.0
20260904203010 96 168 3.0 7.0 0.00 0.00 0.00 57 1010.0
20260904202510 96 158 2.0 7.0 0.00 0.00 0.00 57 1010.1
20260904200510 95 232 3.0 6.0 0.00 0.00 0.00 59 1010.2
20260904200010 95 117 2.0 6.0 0.00 0.00 0.00 59 1010.2
20260904195510 94 173 1.0 6.0 0.00 0.00 0.00 60 1010.2
20260904195010 94 207 2.0 6.0 0.00 0.00 0.00 59 1010.2
20260904194510 94 202 2.0 5.0 0.00 0.00 0.00 60 1010.2
20260904194010 94 222 1.0 5.0 0.00 0.00 0.00 60 1010.3
20260904193510 94 210 0.0 5.0 0.00 0.00 0.00 59 1010.3
20260904193010 94 209 3.0 5.0 0.00 0.00 0.00 59 1010.4
20260904192510 94 205 2.0 5.0 0.00 0.00 0.00 61 1010.4
20260904192010 94 132 1.0 5.0 0.00 0.00 0.00 59 1010.4
20260904191509 94 169 3.0 5.0 0.00 0.00 0.00 60 1010.4
20260904191009 94 215 2.0 5.0 0.00 0.00 0.00 60 1010.5
20260904190509 94 164 2.0 5.0 0.00 0.00 0.00 61 1010.5
20260904190009 93 209 3.0 6.0 0.00 0.00 0.00 61 1010.5
20260904185509 93 171 1.0 6.0 0.00 0.00 0.00 61 1010.6
20260904185009 93 223 2.0 9.0 0.00 0.00 0.00 62 1010.6
20260904184510 93 157 2.0 9.0 0.00 0.00 0.00 62 1010.7
20260904183509 93 179 1.0 6.0 0.00 0.00 0.00 62 1010.7
20260904183009 93 127 2.0 5.0 0.00 0.00 0.00 61 1010.7
20260904182509 93 196 2.0 5.0 0.00 0.00 0.00 61 1010.8
20260904182009 93 202 2.0 5.0 0.00 0.00 0.00 61 1010.8
20260904181509 93 186 1.0 3.0 0.00 0.00 0.00 59 1010.8
20260904180509 94 211 0.0 2.0 0.00 0.00 0.00 58 1010.7
20260904180010 94 211 1.0 2.0 0.00 0.00 0.00 58 1010.8
20260904175509 94 229 1.0 3.0 0.00 0.00 0.00 59 1010.8
20260904175009 94 296 1.0 3.0 0.00 0.00 0.00 60 1010.8
20260904174509 94 203 1.0 3.0 0.00 0.00 0.00 59 1010.8
20260904174009 94 205 1.0 5.0 0.00 0.00 0.00 60 1010.9
20260904173509 93 230 1.0 5.0 0.00 0.00 0.00 59 1010.9
20260904173010 93 172 2.0 5.0 0.00 0.00 0.00 61 1010.9
20260904172509 93 174 1.0 3.0 0.00 0.00 0.00 61 1011.0
20260904172009 93 240 2.0 3.0 0.00 0.00 0.00 61 1011.1
20260904171510 93 106 1.0 3.0 0.00 0.00 0.00 61 1011.0
20260904171009 92 122 1.0 3.0 0.00 0.00 0.00 62 1011.0
20260904170509 92 130 1.0 3.0 0.00 0.00 0.00 62 1011.0
20260904170010 92 125 1.0 3.0 0.00 0.00 0.00 62 1011.0
20260904165509 92 210 1.0 3.0 0.00 0.00 0.00 63 1011.0
20260904165010 91 160 1.0 3.0 0.00 0.00 0.00 63 1010.8
20260904164010 90 130 1.0 3.0 0.00 0.00 0.00 63 1011.0
20260904163509 90 187 2.0 3.0 0.00 0.00 0.00 65 1011.0
20260904162509 89 192 1.0 3.0 0.00 0.00 0.00 66 1011.0
20260904162010 88 202 2.0 3.0 0.00 0.00 0.00 68 1011.1
20260904161510 88 258 1.0 3.0 0.00 0.00 0.00 69 1011.2
20260904161009 87 233 1.0 3.0 0.00 0.00 0.00 69 1011.2
20260904160510 86 222 1.0 3.0 0.00 0.00 0.00 70 1011.3
20260904160010 86 192 1.0 3.0 0.00 0.00 0.00 71 1011.2
20260904155510 86 184 1.0 3.0 0.00 0.00 0.00 71 1011.2
20260904155010 85 235 1.0 3.0 0.00 0.00 0.00 71 1011.3
20260904154510 85 173 2.0 3.0 0.00 0.00 0.00 71 1011.4
20260904154010 85 247 2.0 3.0 0.00 0.00 0.00 72 1011.3
20260904153510 85 192 1.0 5.0 0.00 0.00 0.00 72 1011.4
20260904153010 84 211 1.0 5.0 0.00 0.00 0.00 72 1011.3
20260904151510 83 160 2.0 3.0 0.00 0.00 0.00 74 1011.3
20260904150010 83 206 1.0 5.0 0.00 0.00 0.00 76 1011.4
20260904145010 82 165 1.0 5.0 0.00 0.00 0.00 76 1011.4
20260904144010 81 160 1.0 6.0 0.00 0.00 0.00 76 1011.3
20260904143510 81 151 1.0 3.0 0.00 0.00 0.00 76 1011.4
20260904143010 81 165 1.0 6.0 0.00 0.00 0.00 77 1011.4
20260904142509 81 161 1.0 6.0 0.00 0.00 0.00 77 1011.2
20260904142009 81 139 2.0 5.0 0.00 0.00 0.00 77 1011.3
20260904141509 80 164 2.0 5.0 0.00 0.00 0.00 78 1011.4
20260904141009 80 110 1.0 5.0 0.00 0.00 0.00 78 1011.5
20260904140509 80 119 1.0 5.0 0.00 0.00 0.00 78 1011.5
20260904140009 80 137 1.0 6.0 0.00 0.00 0.00 78 1011.4
20260904135509 79 139 0.0 6.0 0.00 0.00 0.00 79 1011.5
20260904133509 79 161 3.0 5.0 0.00 0.00 0.00 79 1011.3
20260904133009 78 159 2.0 5.0 0.00 0.00 0.00 80 1011.2
20260904132509 78 147 1.0 5.0 0.00 0.00 0.00 80 1011.1
20260904132009 78 140 1.0 5.0 0.00 0.00 0.00 80 1011.1
20260904131509 78 204 1.0 6.0 0.00 0.00 0.00 80 1011.1
20260904125509 77 152 2.0 5.0 0.00 0.00 0.00 81 1010.7
20260904124509 77 152 0.0 5.0 0.00 0.00 0.00 80 1010.7
20260904123509 77 179 1.0 3.0 0.00 0.00 0.00 80 1010.5
20260904123010 77 152 1.0 3.0 0.00 0.00 0.00 80 1010.5
20260904122509 77 150 2.0 3.0 0.00 0.00 0.00 80 1010.5
20260904122010 77 160 1.0 3.0 0.00 0.00 0.00 80 1010.5
20260904121009 77 146 1.0 3.0 0.00 0.00 0.00 79 1010.5
20260904120510 77 153 1.0 3.0 0.00 0.00 0.00 79 1010.4
20260904120010 77 157 0.0 3.0 0.00 0.00 0.00 79 1010.3
20260904115509 77 157 1.0 3.0 0.00 0.00 0.00 79 1010.3
20260904114510 78 152 1.0 3.0 0.00 0.00 0.00 79 1010.1
20260904114010 78 173 0.0 3.0 0.00 0.00 0.00 79 1010.1
20260904113510 78 163 1.0 3.0 0.00 0.00 0.00 79 1010.1
20260904113010 78 156 1.0 3.0 0.00 0.00 0.00 78 1010.1
20260904112510 78 131 1.0 5.0 0.00 0.00 0.00 78 1010.1
20260904112010 78 141 1.0 5.0 0.00 0.00 0.00 78 1010.1
20260904111510 78 149 0.0 3.0 0.00 0.00 0.00 78 1010.1
20260904111010 78 153 0.0 3.0 0.00 0.00 0.00 77 1010.2
20260904110510 78 153 1.0 3.0 0.00 0.00 0.00 77 1010.1
20260904110010 78 147 1.0 3.0 0.00 0.00 0.00 76 1010.0
20260904105010 79 148 1.0 3.0 0.00 0.00 0.00 77 1009.9
20260904104510 79 121 1.0 3.0 0.00 0.00 0.00 77 1009.9
20260904104010 79 145 0.0 3.0 0.00 0.00 0.00 76 1009.9
20260904103510 79 141 1.0 3.0 0.00 0.00 0.00 76 1009.9
20260904103010 79 157 1.0 3.0 0.00 0.00 0.00 76 1009.9
20260904102510 79 145 1.0 3.0 0.00 0.00 0.00 76 1009.9
20260904102010 79 144 1.0 5.0 0.00 0.00 0.00 76 1009.9
20260904100510 79 165 1.0 3.0 0.00 0.00 0.00 75 1009.9
20260904100010 80 157 1.0 3.0 0.00 0.00 0.00 75 1009.8
20260904094509 80 162 1.0 3.0 0.00 0.00 0.00 73 1009.8
20260904094009 80 152 2.0 3.0 0.00 0.00 0.00 73 1009.7
20260904093509 80 148 1.0 3.0 0.00 0.00 0.00 73 1009.6
20260904091509 81 171 1.0 3.0 0.00 0.00 0.00 71 1009.3
20260904090509 82 140 1.0 3.0 0.00 0.00 0.00 70 1009.4
20260904085509 82 115 1.0 3.0 0.00 0.00 0.00 70 1009.2
20260904084509 82 179 1.0 5.0 0.00 0.00 0.00 70 1009.2
20260904084009 82 182 1.0 5.0 0.00 0.00 0.00 69 1009.2
20260904083509 82 144 1.0 7.0 0.00 0.00 0.00 69 1009.1
20260904083010 82 198 2.0 12.0 0.00 0.00 0.00 69 1009.1
20260904082509 82 155 3.0 12.0 0.00 0.00 0.00 69 1009.1
20260904081509 82 156 1.0 3.0 0.00 0.00 0.00 68 1009.1
20260904081009 83 125 0.0 3.0 0.00 0.00 0.00 68 1009.1
20260904080509 83 165 2.0 3.0 0.00 0.00 0.00 68 1009.1
20260904080009 83 123 1.0 3.0 0.00 0.00 0.00 67 1009.2
20260904075009 83 157 2.0 6.0 0.00 0.00 0.00 67 1009.2
20260904074510 83 158 2.0 5.0 0.00 0.00 0.00 67 1009.2
20260904074009 83 157 2.0 5.0 0.00 0.00 0.00 66 1009.2
20260904073509 83 167 2.0 6.0 0.00 0.00 0.00 66 1009.2
20260904073010 84 175 3.0 6.0 0.00 0.00 0.00 66 1009.1
20260904072509 84 161 2.0 5.0 0.00 0.00 0.00 66 1009.1
20260904072009 84 190 2.0 6.0 0.00 0.00 0.00 65 1009.1
20260904071510 84 176 2.0 6.0 0.00 0.00 0.00 65 1009.1
20260904071010 84 162 2.0 6.0 0.00 0.00 0.00 65 1009.1
20260904070010 84 160 3.0 12.0 0.00 0.00 0.00 65 1009.2
20260904065509 84 151 2.0 7.0 0.00 0.00 0.00 65 1009.2
20260904065009 84 144 3.0 6.0 0.00 0.00 0.00 65 1009.2
20260904064510 84 162 2.0 6.0 0.00 0.00 0.00 65 1009.2
20260904064010 84 128 3.0 6.0 0.00 0.00 0.00 65 1009.2
20260904063510 84 169 2.0 10.0 0.00 0.00 0.00 66 1009.2
20260904063010 83 159 3.0 10.0 0.00 0.00 0.00 66 1009.2
20260904062510 83 176 2.0 6.0 0.00 0.00 0.00 67 1009.2
20260904062010 83 137 3.0 6.0 0.00 0.00 0.00 67 1009.2
20260904061510 83 159 2.0 7.0 0.00 0.00 0.00 68 1009.2
20260904061010 82 188 2.0 7.0 0.00 0.00 0.00 68 1009.1
20260904060510 82 175 2.0 7.0 0.00 0.00 0.00 69 1009.2
20260904060010 82 139 1.0 5.0 0.00 0.00 0.00 69 1009.2
20260904055010 82 129 1.0 7.0 0.00 0.00 0.00 69 1009.0
20260904054510 82 121 2.0 7.0 0.00 0.00 0.00 69 1009.0
20260904054010 82 163 1.0 7.0 0.00 0.00 0.00 69 1008.9
20260904053010 83 163 2.0 5.0 0.00 0.00 0.00 69 1008.8
20260904052510 83 129 1.0 10.0 0.00 0.00 0.00 69 1008.7
20260904052010 83 165 1.0 10.0 0.00 0.00 0.00 69 1008.7
20260904051509 83 151 2.0 7.0 0.00 0.00 0.00 69 1008.7
20260904051009 83 185 1.0 3.0 0.00 0.00 0.00 69 1008.7
20260904050010 83 145 1.0 7.0 0.00 0.00 0.00 69 1008.8
20260904045512 83 117 1.0 5.0 0.00 0.00 0.00 69 1008.8
20260904045009 83 154 2.0 9.0 0.00 0.00 0.00 69 1008.8
20260904044509 83 144 1.0 9.0 0.00 0.00 0.00 69 1008.8
20260904044009 83 175 3.0 7.0 0.00 0.00 0.00 69 1008.8
20260904043509 83 153 3.0 7.0 0.00 0.00 0.00 69 1008.8
20260904042509 83 152 1.0 5.0 0.00 0.00 0.00 69 1008.8
20260904042009 83 180 1.0 3.0 0.00 0.00 0.00 69 1008.8
20260904041509 83 152 1.0 3.0 0.00 0.00 0.00 69 1008.8
20260904041009 83 168 1.0 3.0 0.00 0.00 0.00 69 1008.8
20260904040509 84 165 0.0 3.0 0.00 0.00 0.00 69 1008.8
20260904040009 84 188 1.0 3.0 0.00 0.00 0.00 69 1009.0
20260904035509 84 157 1.0 3.0 0.00 0.00 0.00 69 1009.0
20260904034509 84 155 1.0 3.0 0.00 0.00 0.00 68 1009.0
20260904034009 84 162 0.0 3.0 0.00 0.00 0.00 68 1009.0
20260904033509 85 165 1.0 3.0 0.00 0.00 0.00 68 1009.0
20260904033009 85 150 0.0 3.0 0.00 0.00 0.00 68 1009.0
20260904032509 85 122 0.0 3.0 0.00 0.00 0.00 67 1009.0
20260904032009 85 144 1.0 3.0 0.00 0.00 0.00 67 1008.9
20260904031510 85 135 1.0 3.0 0.00 0.00 0.00 67 1008.9
20260904031009 86 146 0.0 2.0 0.00 0.00 0.00 66 1008.9
20260904030509 86 155 1.0 2.0 0.00 0.00 0.00 66 1008.8
20260904030010 86 151 0.0 2.0 0.00 0.00 0.00 66 1008.9
20260904025509 86 166 0.0 3.0 0.00 0.00 0.00 65 1008.9
20260904025009 86 165 1.0 3.0 0.00 0.00 0.00 65 1008.9